Regional Weather Roundup
Issued by NWS Bismarck, ND

Home | Current Version | Previous Version | Text Only | Print | Product List | Glossary On
Versions: 1 2 3 4 5 6 7 8 9 10 11 12 13 14 15 16 17 18 19 20 21 22 23 24 25 26 27 28 29 30 31 32 33 34 35 36 37 38 39 40 41 42 43 44 45 46 47 48 49 50
203
ASUS43 KBIS 252302
RWRBIS

NWR BROADCAST TEXT
NATIONAL WEATHER SERVICE BISMARCK ND
600 PM CDT WED APR 25 2018

NOTE: "FAIR" INDICATES FEW OR NO CLOUDS BELOW 12,000 FEET WITH NO
SIGNIFICANT WEATHER AND/OR OBSTRUCTIONS TO VISIBILITY.


CITY           SKY/WX    TMP DP  RH WIND       PRES   REMARKS
WILLISTON      CLOUDY    69  27  20 NW16      29.81S
MINOT          CLOUDY    69  25  19 W17G25    29.76S
MINOT AFB      CLOUDY    69  29  23 W16       29.74F
BISMARCK       PTSUNNY   70  25  18 SW16      29.83F
DICKINSON      CLOUDY    67  26  21 W21       29.83S
GARRISON         N/A     69  22  16 W20G29    29.78F
HETTINGER ARPT PTSUNNY   69  29  22 W15G21    29.86F
JAMESTOWN      CLOUDY    65  30  27 SW21G32   29.84F
CARRINGTON     FAIR      66  27  22 SW22G35   29.85S
HAZEN          FAIR      70  19  14 W17G24    29.80F
MANDAN         FAIR      68  25  19 SW15G22   29.83F
OAKES            N/A     63  32  31 SW20G26   29.91F
RUGBY          FAIR      66  28  24 SW21G28   29.75F
STANLEY          N/A     66  30  26 W15G23    29.81S HAZE
TIOGA          FAIR      66  27  22 NW14G24   29.81R
WATFORD CITY   FAIR      66  28  24 NW20G26   29.81R
$$

CITY           SKY/WX    TMP DP  RH WIND       PRES   REMARKS
GRAND FORKS    PTSUNNY   61  37  41 SW22G35   29.83F
GRAND FORKS AF FAIR      62  34  35 S14       29.82F
DEVILS LAKE    FAIR      60  29  30 SW13      29.79F
FARGO          FAIR      64  30  27 S18       29.90F
CANDO          FAIR      68  25  19 W20G26    29.78F
CAVALIER         N/A     66  30  26 SW20G29   29.76F
GRAFTON        FAIR      64  30  27 SW21G30   29.81F
GWINNER          N/A     63  32  31 SW20      29.92F
LANGDON        FAIR      64  32  29 SW26G33   29.76F
ROLLA          FAIR      64  30  27 W20G28    29.74F
$$

CITY           SKY/WX    TMP DP  RH WIND       PRES   REMARKS
ABERDEEN       PTSUNNY   64  30  27 SW17G24   29.95F
MOBRIDGE       PTSUNNY   68  32  26 S14       29.86F
BUFFALO          N/A     71  24  17 NW20G28   29.82F
RAPID CITY     PTSUNNY   72  21  14 NW12      29.87F
GLASGOW        CLOUDY    68  25  19 N25G38    29.94R
SIDNEY         CLOUDY    68  29  23 NW21G28   29.84R
WOLF POINT     CLOUDY    69  28  21 N20G29    29.89R
GLENDIVE       CLOUDY    66  28  24 NW20G25   29.88S
MILES CITY     CLOUDY    66  31  27 NW20      29.92R
BAKER          CLOUDY    64  30  27 W20G28    29.90S
$$

CITY           SKY/WX    TMP DP  RH WIND       PRES   REMARKS
BILLINGS       CLOUDY    67  27  22 NW29G44   30.00R
GREAT FALLS    CLOUDY    51  32  48 NE5       30.19R
$$





USA.gov is the U.S. government's official web portal to all federal, state and local government web resources and services.